Springfield, MO

8:35 AM CDT on May 26, 2017 (GMT -0500)
Springfield-Branson Regional

Weather History for KSGF - November, 2011

Change the Weather History Date:

Wednesday, November 9, 2011

  Actual Average Record
Temperature  
Mean Temperature 44 °F 49 °F  
Max Temperature 52 °F 60 °F 83 °F (2006)
Min Temperature 36 °F 38 °F 21 °F (1950)
Degree Days  
Heating Degree Days 21 16  
Month to date heating degree days 113 129  
Since 1 July heating degree days 457 437  
Cooling Degree Days 0 0  
Month to date cooling degree days 0 0  
Year to date cooling degree days 1818 1387  
Moisture  
Dew Point 34 °F    
Average Humidity 71    
Maximum Humidity 100    
Minimum Humidity 41    
Precipitation  
Precipitation T in 0.14 in 1.78 in (1966)
Month to date precipitation 3.59 1.25  
Year to date precipitation 36.08 39.56  
Snow  
Snow 0.00 in - - ()
Month to date snowfall T  
Since 1 July snowfall T  
Since 1 September snowfall T  
Snow Depth 0.00 in    
Sea Level Pressure  
Sea Level Pressure 30.12 in    
Wind  
Wind Speed 14 mph (WNW)    
Max Wind Speed 28 mph    
Max Gust Speed 35 mph    
Visibility 9 miles    
Events Rain    
T = Trace of Precipitation, MM = Missing Value Source: NWS Daily Summary

Daily Weather History Graph

Daily Weather History Graph

Search for Another Location

Airport or City:

Trip Planner

Search our weather history database for the weather conditions in past years. The results will help you decide how hot, cold, wet, or windy it might be!

Date:

Astronomy

Nov. 09, 2011 Rise Set
Actual Time 6:46 AM CST 5:08 PM CST
Civil Twilight 6:18 AM CST 5:35 PM CST
Nautical Twilight 5:47 AM CST 6:06 PM CST
Astronomical Twilight 5:16 AM CST 6:37 PM CST
Moon 4:20 PM CST (11/9) 5:42 AM CST (11/9)
Length of Visible Light 11h 16m
Length of Day
10h 22m
Waxing Gibbous, 99% of the Moon is Illuminated
Nov 9
Waxing Gibbous
Nov 10
Full
Nov 18
Last Quarter
Nov 25
New
Dec 2
First Quarter

Hourly Weather History & Observations

Time (CST) Temp. Windchill Dew Point Humidity Pressure Visibility Wind Dir Wind Speed Gust Speed Precip Events Conditions
12:02 AM 48.2 °F - 46.4 °F 93% 29.84 in 6.0 mi WSW 16.1 mph 29.9 mph 0.00 in Rain Light Rain
12:28 AM 48.2 °F - 44.6 °F 87% 29.84 in 10.0 mi WSW 20.7 mph 28.8 mph 0.00 in   Overcast
12:52 AM 48.0 °F - 44.1 °F 86% 29.85 in 10.0 mi WSW 19.6 mph 28.8 mph 0.00 in   Overcast
1:07 AM 46.4 °F 38.5 °F 44.6 °F 93% 29.85 in 10.0 mi WSW 21.9 mph 32.2 mph 0.00 in Rain Light Rain
1:52 AM 45.0 °F 36.9 °F 43.0 °F 93% 29.88 in 5.0 mi WSW 20.7 mph 31.1 mph 0.00 in Rain Light Rain
2:43 AM 42.8 °F 34.0 °F 39.2 °F 87% 29.91 in 9.0 mi West 20.7 mph 29.9 mph 0.00 in   Overcast
2:52 AM 42.1 °F 33.1 °F 41.0 °F 96% 29.92 in 6.0 mi West 20.7 mph 26.5 mph 0.00 in   Overcast
3:52 AM 37.4 °F 26.1 °F 37.4 °F 100% 29.96 in 9.0 mi West 24.2 mph 29.9 mph N/A   Overcast
4:52 AM 37.0 °F 28.1 °F 35.1 °F 93% 30.01 in 4.0 mi WNW 15.0 mph 28.8 mph 0.00 in   Overcast
5:52 AM 37.0 °F 27.4 °F 35.1 °F 93% 30.06 in 10.0 mi WNW 17.3 mph 26.5 mph 0.00 in   Overcast
6:03 AM 37.4 °F 27.8 °F 35.6 °F 93% 30.05 in 10.0 mi NW 17.3 mph 24.2 mph N/A   Overcast
6:52 AM 37.0 °F 28.1 °F 35.1 °F 93% 30.10 in 10.0 mi NW 15.0 mph 23.0 mph N/A   Overcast
7:52 AM 39.2 °F 29.6 °F 35.6 °F 87% 30.13 in 10.0 mi NNW 19.6 mph 27.6 mph N/A   Overcast
7:59 AM 39.2 °F 29.3 °F 35.6 °F 87% 30.14 in 10.0 mi NNW 20.7 mph 27.6 mph N/A   Overcast
8:52 AM 39.9 °F 30.2 °F 36.0 °F 86% 30.18 in 10.0 mi NW 20.7 mph 31.1 mph N/A   Overcast
9:52 AM 43.0 °F 33.3 °F 35.1 °F 74% 30.20 in 10.0 mi NNW 25.3 mph 29.9 mph N/A   Mostly Cloudy
10:17 AM 44.6 °F 36.1 °F 35.6 °F 71% 30.21 in 10.0 mi NNW 21.9 mph 29.9 mph N/A   Scattered Clouds
10:52 AM 46.0 °F 39.0 °F 34.0 °F 63% 30.23 in 10.0 mi NNW 17.3 mph 26.5 mph N/A   Partly Cloudy
11:52 AM 46.9 °F - 32.0 °F 56% 30.23 in 10.0 mi NW 16.1 mph - N/A   Clear
12:52 PM 50.0 °F - 33.1 °F 52% 30.22 in 10.0 mi NW 16.1 mph 21.9 mph N/A   Clear
1:52 PM 50.0 °F - 30.0 °F 46% 30.22 in 10.0 mi NW 12.7 mph 21.9 mph N/A   Clear
2:52 PM 51.1 °F - 28.9 °F 43% 30.23 in 10.0 mi NW 11.5 mph 21.9 mph N/A   Clear
3:52 PM 51.1 °F - 28.0 °F 41% 30.24 in 10.0 mi WNW 12.7 mph 20.7 mph N/A   Clear
4:52 PM 48.2 °F - 28.4 °F 46% 30.23 in 10.0 mi WNW 13.8 mph 18.4 mph N/A   Clear
5:52 PM 46.0 °F 42.5 °F 28.9 °F 51% 30.26 in 10.0 mi NW 6.9 mph - N/A   Clear
6:52 PM 44.1 °F 40.1 °F 28.0 °F 53% 30.27 in 10.0 mi WNW 6.9 mph - N/A   Clear
7:52 PM 42.1 °F 39.2 °F 28.9 °F 60% 30.27 in 10.0 mi WNW 4.6 mph - N/A   Clear
8:52 PM 41.0 °F 37.1 °F 28.0 °F 60% 30.29 in 10.0 mi WNW 5.8 mph - N/A   Clear
9:52 PM 39.9 °F 35.1 °F 27.0 °F 60% 30.30 in 10.0 mi WNW 6.9 mph - N/A   Clear
10:52 PM 39.0 °F 35.7 °F 27.0 °F 62% 30.31 in 10.0 mi WNW 4.6 mph - N/A   Clear
11:52 PM 37.0 °F 34.5 °F 27.0 °F 67% 30.32 in 10.0 mi WNW 3.5 mph - N/A   Clear